MSR14 HECA-OERK

Flight info

Callsign MSR14
Flight time 2h 16m
Altitude 37000
Route CVO L315 HGD M872 SILKA J852 WEJ J874 GAS G662 SIVIS
Aircraft B738/M-SDE2E3FGHIRWXY/LB1

Departure

Time 2026-05-06 03:33
Airport Cairo International Airport (HECA)

Arrival

Time 2026-05-06 05:49
Airport King Khalid International Airport (OERK)
Time Latitude Longitude Altitude Speed Heading
2026-05-06 03:03 30.10808 31.39673 335 ft 0 kts 255°
2026-05-06 03:21 30.10809 31.39677 334 ft 4 kts 255°
2026-05-06 03:22 30.10818 31.39714 336 ft 5 kts 252°
2026-05-06 03:22 30.10829 31.39745 336 ft 3 kts 237°
2026-05-06 03:22 30.10837 31.39757 337 ft 2 kts 205°
2026-05-06 03:22 30.10848 31.39760 336 ft 2 kts 175°
2026-05-06 03:23 30.10859 31.39758 335 ft 2 kts 166°
2026-05-06 03:23 30.10867 31.39756 334 ft 0 kts 165°
2026-05-06 03:27 30.10866 31.39756 334 ft 1 kts 166°
2026-05-06 03:27 30.10842 31.39763 336 ft 6 kts 165°
2026-05-06 03:27 30.10787 31.39780 348 ft 10 kts 165°
2026-05-06 03:27 30.10714 31.39803 353 ft 11 kts 165°
2026-05-06 03:28 30.10645 31.39823 358 ft 5 kts 167°
2026-05-06 03:28 30.10609 31.39833 357 ft 6 kts 163°
2026-05-06 03:28 30.10565 31.39847 361 ft 7 kts 165°
2026-05-06 03:28 30.10516 31.39862 360 ft 8 kts 165°
2026-05-06 03:29 30.10463 31.39878 367 ft 8 kts 170°
2026-05-06 03:29 30.10407 31.39852 366 ft 10 kts 226°
2026-05-06 03:29 30.10348 31.39776 365 ft 15 kts 227°
2026-05-06 03:29 30.10288 31.39699 365 ft 12 kts 228°
2026-05-06 03:30 30.10234 31.39631 366 ft 13 kts 228°
2026-05-06 03:30 30.10178 31.39576 370 ft 11 kts 192°
2026-05-06 03:30 30.10118 31.39605 371 ft 0 kts 141°
2026-05-06 03:30 30.10115 31.39607 371 ft 1 kts 141°
2026-05-06 03:31 30.10104 31.39618 372 ft 5 kts 141°
2026-05-06 03:31 30.10062 31.39657 376 ft 10 kts 140°
2026-05-06 03:31 30.10022 31.39704 381 ft 10 kts 124°
2026-05-06 03:31 30.10006 31.39794 385 ft 15 kts 87°
2026-05-06 03:32 30.10002 31.39849 387 ft 4 kts 98°
2026-05-06 03:32 30.10018 31.39899 387 ft 11 kts 49°
2026-05-06 03:32 30.10030 31.39915 387 ft 1 kts 49°
2026-05-06 03:32 30.10165 31.40094 387 ft 66 kts 49°
2026-05-06 03:33 30.10627 31.40705 386 ft 133 kts 49°
2026-05-06 03:33 30.11336 31.41652 629 ft 167 kts 50°
2026-05-06 03:33 30.12093 31.42675 1434 ft 164 kts 48°
2026-05-06 03:33 30.12758 31.43723 2257 ft 167 kts 69°
2026-05-06 03:34 30.12836 31.45145 2641 ft 197 kts 99°
2026-05-06 03:34 30.12191 31.46642 2867 ft 225 kts 131°
2026-05-06 03:34 30.10948 31.47857 3193 ft 241 kts 142°
2026-05-06 03:34 30.09552 31.48990 3728 ft 249 kts 144°
2026-05-06 03:35 30.08067 31.50156 4116 ft 267 kts 145°
2026-05-06 03:35 30.06506 31.51378 4842 ft 273 kts 145°
2026-05-06 03:35 30.04926 31.52620 5639 ft 278 kts 146°
2026-05-06 03:35 30.03314 31.53893 6384 ft 284 kts 146°
2026-05-06 03:36 30.01668 31.55198 7102 ft 289 kts 146°
2026-05-06 03:36 30.00000 31.56525 7831 ft 294 kts 146°
2026-05-06 03:36 29.98304 31.57878 8561 ft 299 kts 146°
2026-05-06 03:36 29.96576 31.59258 9271 ft 305 kts 146°
2026-05-06 03:37 29.94825 31.60658 10001 ft 309 kts 146°
2026-05-06 03:37 29.93034 31.62091 10477 ft 323 kts 146°
2026-05-06 03:37 29.91120 31.63621 10640 ft 346 kts 146°
2026-05-06 03:37 29.89082 31.65250 10900 ft 364 kts 146°
2026-05-06 03:38 29.86980 31.66932 11432 ft 371 kts 146°
2026-05-06 03:38 29.84845 31.68641 12086 ft 375 kts 147°
2026-05-06 03:38 29.82688 31.70366 12742 ft 380 kts 147°
2026-05-06 03:38 29.80505 31.72112 13414 ft 384 kts 147°
2026-05-06 03:39 29.78303 31.73871 14075 ft 387 kts 147°
2026-05-06 03:39 29.76076 31.75650 14711 ft 391 kts 147°
2026-05-06 03:39 29.73832 31.77440 15356 ft 394 kts 148°
2026-05-06 03:39 29.71601 31.79220 16004 ft 397 kts 148°
2026-05-06 03:40 29.69320 31.81038 16658 ft 401 kts 148°
2026-05-06 03:40 29.67014 31.82875 17297 ft 405 kts 148°
2026-05-06 03:40 29.64687 31.84728 17922 ft 408 kts 148°
2026-05-06 03:40 29.62340 31.86596 18526 ft 412 kts 148°
2026-05-06 03:41 29.59974 31.88478 19097 ft 415 kts 148°
2026-05-06 03:41 29.57594 31.90370 19688 ft 417 kts 148°
2026-05-06 03:41 29.55203 31.92270 20288 ft 419 kts 148°
2026-05-06 03:41 29.52801 31.94178 20874 ft 421 kts 148°
2026-05-06 03:42 29.50384 31.96096 21446 ft 423 kts 148°
2026-05-06 03:42 29.47960 31.98019 22022 ft 425 kts 149°
2026-05-06 03:42 29.45513 31.99957 22549 ft 429 kts 149°
2026-05-06 03:42 29.43054 32.01904 23078 ft 431 kts 149°
2026-05-06 03:43 29.40572 32.03868 23583 ft 435 kts 149°
2026-05-06 03:43 29.38072 32.05846 24002 ft 439 kts 149°
2026-05-06 03:43 29.35550 32.07839 24395 ft 442 kts 149°
2026-05-06 03:43 29.33007 32.09849 24829 ft 445 kts 149°
2026-05-06 03:44 29.30455 32.11865 25263 ft 447 kts 149°
2026-05-06 03:44 29.27895 32.13886 25685 ft 449 kts 149°
2026-05-06 03:44 29.25318 32.15919 26097 ft 451 kts 149°
2026-05-06 03:44 29.22722 32.17965 26496 ft 454 kts 149°
2026-05-06 03:45 29.20111 32.20021 26874 ft 457 kts 149°
2026-05-06 03:45 29.17489 32.22086 27226 ft 459 kts 149°
2026-05-06 03:45 29.14848 32.24163 27589 ft 462 kts 150°
2026-05-06 03:45 29.12193 32.26250 27967 ft 464 kts 150°
2026-05-06 03:46 29.09530 32.28343 28325 ft 466 kts 150°
2026-05-06 03:46 29.06850 32.30447 28672 ft 469 kts 150°
2026-05-06 03:46 29.04154 32.32563 29017 ft 471 kts 150°
2026-05-06 03:46 29.01445 32.34687 29338 ft 474 kts 150°
2026-05-06 03:47 28.98718 32.36824 29669 ft 476 kts 150°
2026-05-06 03:47 28.95978 32.38970 30002 ft 478 kts 150°
2026-05-06 03:47 28.93228 32.41123 30302 ft 480 kts 150°
2026-05-06 03:47 28.90475 32.43277 30598 ft 482 kts 150°
2026-05-06 03:48 28.87701 32.45446 30866 ft 483 kts 150°
2026-05-06 03:48 28.84924 32.47615 31136 ft 484 kts 150°
2026-05-06 03:48 28.82140 32.49789 31434 ft 485 kts 150°
2026-05-06 03:48 28.79358 32.51960 31782 ft 484 kts 150°
2026-05-06 03:49 28.76624 32.54093 32199 ft 481 kts 150°
2026-05-06 03:49 28.73869 32.56241 32592 ft 479 kts 150°
2026-05-06 03:49 28.71082 32.58412 32943 ft 478 kts 150°
2026-05-06 03:49 28.68379 32.60515 33238 ft 478 kts 150°
2026-05-06 03:50 28.65632 32.62650 33566 ft 477 kts 150°
2026-05-06 03:50 28.62894 32.64778 33935 ft 475 kts 150°
2026-05-06 03:50 28.60172 32.66892 34260 ft 474 kts 151°
2026-05-06 03:50 28.57450 32.69004 34509 ft 474 kts 151°
2026-05-06 03:51 28.54728 32.71115 34711 ft 474 kts 151°
2026-05-06 03:51 28.52001 32.73227 34940 ft 474 kts 151°
2026-05-06 03:51 28.49273 32.75340 35203 ft 474 kts 151°
2026-05-06 03:51 28.46550 32.77448 35465 ft 473 kts 152°
2026-05-06 03:52 28.43835 32.79550 35705 ft 472 kts 152°
2026-05-06 03:52 28.41120 32.81649 35929 ft 472 kts 152°
2026-05-06 03:52 28.38404 32.83747 36162 ft 472 kts 152°
2026-05-06 03:52 28.35693 32.85841 36395 ft 471 kts 152°
2026-05-06 03:53 28.32984 32.87931 36625 ft 471 kts 152°
2026-05-06 03:53 28.30272 32.90022 36829 ft 471 kts 152°
2026-05-06 03:53 28.27566 32.92108 37052 ft 470 kts 152°
2026-05-06 03:53 28.24860 32.94192 37269 ft 470 kts 153°
2026-05-06 03:54 28.22160 32.96271 37479 ft 469 kts 153°
2026-05-06 03:54 28.19460 32.98348 37681 ft 469 kts 153°
2026-05-06 03:54 28.16762 33.00423 37879 ft 469 kts 153°
2026-05-06 03:54 28.14064 33.02496 38089 ft 468 kts 153°
2026-05-06 03:55 28.11374 33.04562 38280 ft 468 kts 153°
2026-05-06 03:55 28.08679 33.06631 38477 ft 467 kts 153°
2026-05-06 03:55 28.05984 33.08698 38651 ft 467 kts 153°
2026-05-06 03:55 28.03290 33.10763 38803 ft 467 kts 153°
2026-05-06 03:56 28.00612 33.12837 38944 ft 468 kts 152°
2026-05-06 03:56 27.97954 33.14971 39041 ft 469 kts 152°
2026-05-06 03:56 27.92649 33.19317 39051 ft 471 kts 151°
2026-05-06 03:57 27.87391 33.23625 39051 ft 469 kts 152°
2026-05-06 03:57 27.82106 33.27922 39041 ft 467 kts 152°
2026-05-06 03:58 27.76831 33.32193 39039 ft 466 kts 152°
2026-05-06 03:58 27.71534 33.36477 39042 ft 464 kts 152°
2026-05-06 03:59 27.67174 33.40001 39044 ft 464 kts 152°
2026-05-06 03:59 27.61928 33.44235 39044 ft 464 kts 152°
2026-05-06 04:00 27.55827 33.49155 39056 ft 464 kts 152°
2026-05-06 04:00 27.51427 33.52698 39039 ft 464 kts 152°
2026-05-06 04:01 27.46165 33.56920 39047 ft 465 kts 152°
2026-05-06 04:01 27.40893 33.61144 39024 ft 464 kts 152°
2026-05-06 04:02 27.35667 33.65327 39026 ft 464 kts 152°
2026-05-06 04:02 27.30402 33.69539 39022 ft 464 kts 152°
2026-05-06 04:03 27.25136 33.73746 39017 ft 464 kts 152°
2026-05-06 04:03 27.19970 33.78136 39006 ft 474 kts 142°
2026-05-06 04:04 27.16021 33.84207 39017 ft 493 kts 121°
2026-05-06 04:04 27.13447 33.91389 39016 ft 498 kts 116°
2026-05-06 04:05 27.10984 33.98657 39018 ft 497 kts 117°
2026-05-06 04:05 27.08446 34.05869 39016 ft 497 kts 117°
2026-05-06 04:06 27.05863 34.13068 39018 ft 497 kts 118°
2026-05-06 04:06 27.03278 34.20270 39012 ft 498 kts 118°
2026-05-06 04:07 27.00693 34.27472 39013 ft 498 kts 118°
2026-05-06 04:07 26.98105 34.34681 39005 ft 498 kts 118°
2026-05-06 04:08 26.95514 34.41889 39003 ft 498 kts 118°
2026-05-06 04:08 26.92920 34.49093 38999 ft 499 kts 118°
2026-05-06 04:09 26.90319 34.56303 38997 ft 499 kts 118°
2026-05-06 04:09 26.87716 34.63502 38996 ft 499 kts 118°
2026-05-06 04:10 26.85108 34.70704 38998 ft 499 kts 118°
2026-05-06 04:10 26.82493 34.77909 38991 ft 499 kts 118°
2026-05-06 04:11 26.79877 34.85107 38990 ft 499 kts 119°
2026-05-06 04:11 26.77254 34.92308 38989 ft 499 kts 119°
2026-05-06 04:12 26.74648 34.99452 38985 ft 499 kts 119°
2026-05-06 04:12 26.72019 35.06643 38982 ft 499 kts 119°
2026-05-06 04:13 26.69389 35.13825 38982 ft 499 kts 119°
2026-05-06 04:13 26.66753 35.21011 38979 ft 499 kts 120°
2026-05-06 04:14 26.64112 35.28196 38974 ft 499 kts 120°
2026-05-06 04:14 26.61470 35.35372 38972 ft 499 kts 120°
2026-05-06 04:15 26.58825 35.42545 38969 ft 499 kts 120°
2026-05-06 04:15 26.56172 35.49718 38964 ft 499 kts 120°
2026-05-06 04:16 26.53460 35.56848 38965 ft 499 kts 121°
2026-05-06 04:16 26.50720 35.63964 38959 ft 499 kts 121°
2026-05-06 04:17 26.47976 35.71101 38957 ft 500 kts 121°
2026-05-06 04:17 26.45238 35.78233 38955 ft 500 kts 121°
2026-05-06 04:18 26.42494 35.85372 38949 ft 501 kts 121°
2026-05-06 04:18 26.39744 35.92513 38947 ft 501 kts 122°
2026-05-06 04:19 26.36988 35.99659 38943 ft 502 kts 122°
2026-05-06 04:19 26.34223 36.06811 38936 ft 502 kts 122°
2026-05-06 04:20 26.31453 36.13967 38943 ft 503 kts 122°
2026-05-06 04:20 26.28698 36.21069 38939 ft 503 kts 122°
2026-05-06 04:21 26.25919 36.28225 38939 ft 503 kts 122°
2026-05-06 04:21 26.23138 36.35373 38932 ft 503 kts 122°
2026-05-06 04:22 26.20359 36.42504 38931 ft 502 kts 122°
2026-05-06 04:22 26.19184 36.46207 38934 ft 513 kts 112°
2026-05-06 04:23 26.18326 36.54197 38936 ft 530 kts 92°
2026-05-06 04:23 26.19086 36.62389 38939 ft 533 kts 87°
2026-05-06 04:24 26.20034 36.70572 38930 ft 532 kts 87°
2026-05-06 04:24 26.20914 36.78754 38939 ft 531 kts 88°
2026-05-06 04:25 26.21730 36.86928 38948 ft 530 kts 88°
2026-05-06 04:25 26.22527 36.95095 38948 ft 530 kts 88°
2026-05-06 04:26 26.23321 37.03252 38950 ft 530 kts 89°
2026-05-06 04:26 26.24116 37.11420 38965 ft 530 kts 89°
2026-05-06 04:27 26.24907 37.19587 38970 ft 531 kts 89°
2026-05-06 04:27 26.25696 37.27771 38965 ft 532 kts 89°
2026-05-06 04:28 26.26481 37.35959 38983 ft 532 kts 89°
2026-05-06 04:28 26.27261 37.44174 38976 ft 533 kts 89°
2026-05-06 04:29 26.28032 37.52327 38986 ft 533 kts 89°
2026-05-06 04:29 26.28804 37.60540 38980 ft 533 kts 89°
2026-05-06 04:30 26.29571 37.68752 38996 ft 532 kts 88°
2026-05-06 04:30 26.30332 37.76951 38997 ft 532 kts 89°
2026-05-06 04:31 26.31094 37.85153 39009 ft 532 kts 89°
2026-05-06 04:31 26.31856 37.93354 39022 ft 532 kts 89°
2026-05-06 04:32 26.32616 38.01565 39024 ft 532 kts 89°
2026-05-06 04:32 26.33369 38.09769 39043 ft 532 kts 89°
2026-05-06 04:33 26.34119 38.17973 39042 ft 532 kts 89°
2026-05-06 04:33 26.34861 38.26183 39033 ft 532 kts 89°
2026-05-06 04:34 26.35587 38.34407 39027 ft 533 kts 89°
2026-05-06 04:34 26.36303 38.42629 39015 ft 533 kts 89°
2026-05-06 04:35 26.37018 38.50867 39004 ft 534 kts 89°
2026-05-06 04:35 26.37730 38.59120 39012 ft 534 kts 89°
2026-05-06 04:36 26.38437 38.67363 39011 ft 534 kts 89°
2026-05-06 04:36 26.39140 38.75603 39016 ft 534 kts 89°
2026-05-06 04:37 26.39837 38.83849 39022 ft 534 kts 89°
2026-05-06 04:37 26.40530 38.92096 39018 ft 534 kts 89°
2026-05-06 04:38 26.41213 39.00285 39023 ft 534 kts 89°
2026-05-06 04:38 26.41896 39.08529 39025 ft 534 kts 89°
2026-05-06 04:39 26.42574 39.16780 39016 ft 534 kts 89°
2026-05-06 04:39 26.43249 39.25033 39020 ft 534 kts 89°
2026-05-06 04:40 26.43816 39.33284 39020 ft 533 kts 92°
2026-05-06 04:40 26.44195 39.41527 39018 ft 532 kts 92°
2026-05-06 04:41 26.44561 39.49789 39019 ft 533 kts 92°
2026-05-06 04:41 26.44955 39.58050 39025 ft 533 kts 92°
2026-05-06 04:42 26.45360 39.66316 39026 ft 534 kts 91°
2026-05-06 04:42 26.45762 39.74585 39033 ft 534 kts 92°
2026-05-06 04:43 26.46157 39.82863 39025 ft 534 kts 92°
2026-05-06 04:43 26.46546 39.91144 39027 ft 535 kts 92°
2026-05-06 04:44 26.46931 39.99440 39038 ft 535 kts 92°
2026-05-06 04:44 26.47311 40.07739 39028 ft 535 kts 92°
2026-05-06 04:45 26.47685 40.15985 39027 ft 535 kts 92°
2026-05-06 04:45 26.48055 40.24278 39036 ft 535 kts 92°
2026-05-06 04:46 26.48362 40.31233 39033 ft 535 kts 92°
2026-05-06 04:46 26.48782 40.40873 39031 ft 535 kts 92°
2026-05-06 04:47 26.49139 40.49166 39027 ft 535 kts 92°
2026-05-06 04:47 26.49491 40.57457 39029 ft 534 kts 92°
2026-05-06 04:48 26.49779 40.64342 39040 ft 534 kts 92°
2026-05-06 04:48 26.50122 40.72617 39034 ft 534 kts 92°
2026-05-06 04:49 26.50463 40.80943 39039 ft 533 kts 92°
2026-05-06 04:49 26.50794 40.89163 39028 ft 533 kts 92°
2026-05-06 04:50 26.51123 40.97420 39039 ft 532 kts 92°
2026-05-06 04:50 26.51378 41.05673 39028 ft 528 kts 98°
2026-05-06 04:51 26.50875 41.13807 39035 ft 524 kts 101°
2026-05-06 04:51 26.50231 41.21910 39035 ft 524 kts 102°
2026-05-06 04:52 26.49611 41.30025 39038 ft 524 kts 101°
2026-05-06 04:52 26.49025 41.38143 39034 ft 525 kts 101°
2026-05-06 04:53 26.48446 41.46259 39042 ft 525 kts 101°
2026-05-06 04:53 26.47861 41.54395 39040 ft 526 kts 101°
2026-05-06 04:54 26.47268 41.62541 39038 ft 527 kts 101°
2026-05-06 04:54 26.46668 41.70703 39035 ft 528 kts 101°
2026-05-06 04:55 26.46064 41.78864 39040 ft 528 kts 101°
2026-05-06 04:55 26.45453 41.87040 39037 ft 529 kts 101°
2026-05-06 04:56 26.44837 41.95229 39033 ft 529 kts 101°
2026-05-06 04:56 26.44216 42.03422 39036 ft 530 kts 101°
2026-05-06 04:57 26.43591 42.11611 39036 ft 530 kts 101°
2026-05-06 04:57 26.42964 42.19760 39033 ft 530 kts 102°
2026-05-06 04:58 26.42329 42.27957 39037 ft 530 kts 102°
2026-05-06 04:58 26.41689 42.36147 39029 ft 530 kts 102°
2026-05-06 04:59 26.41046 42.44329 39029 ft 529 kts 102°
2026-05-06 04:59 26.40399 42.52497 39025 ft 528 kts 102°
2026-05-06 05:00 26.39748 42.60646 39032 ft 527 kts 102°
2026-05-06 05:00 26.39094 42.68786 39034 ft 526 kts 102°
2026-05-06 05:01 26.38436 42.76908 39030 ft 526 kts 102°
2026-05-06 05:01 26.37774 42.85025 39026 ft 525 kts 102°
2026-05-06 05:02 26.37108 42.93128 39028 ft 525 kts 102°
2026-05-06 05:02 26.36440 43.01216 39040 ft 524 kts 102°
2026-05-06 05:03 26.35762 43.09327 39028 ft 525 kts 102°
2026-05-06 05:03 26.35073 43.17436 39027 ft 526 kts 102°
2026-05-06 05:04 26.34380 43.25560 39024 ft 526 kts 102°
2026-05-06 05:04 26.33683 43.33681 39020 ft 527 kts 102°
2026-05-06 05:05 26.32981 43.41807 39019 ft 527 kts 102°
2026-05-06 05:05 26.32274 43.49946 39018 ft 528 kts 102°
2026-05-06 05:06 26.31566 43.58037 39017 ft 528 kts 102°
2026-05-06 05:06 26.30848 43.66185 38829 ft 532 kts 102°
2026-05-06 05:06 26.30482 43.70306 38233 ft 535 kts 102°
2026-05-06 05:07 26.30073 43.74410 37637 ft 530 kts 107°
2026-05-06 05:07 26.29280 43.78370 37080 ft 518 kts 115°
2026-05-06 05:07 26.28065 43.82109 36472 ft 506 kts 125°
2026-05-06 05:07 26.26484 43.85575 35900 ft 500 kts 127°
2026-05-06 05:08 26.24857 43.89009 35231 ft 502 kts 127°
2026-05-06 05:08 26.23224 43.92446 34580 ft 503 kts 127°
2026-05-06 05:08 26.21604 43.95888 34109 ft 500 kts 127°
2026-05-06 05:08 26.20006 43.99320 33552 ft 498 kts 126°
2026-05-06 05:09 26.18428 44.02737 33063 ft 494 kts 126°
2026-05-06 05:09 26.16870 44.06122 32588 ft 490 kts 126°
2026-05-06 05:09 26.15323 44.09486 32121 ft 486 kts 126°
2026-05-06 05:09 26.13789 44.12819 31663 ft 482 kts 126°
2026-05-06 05:10 26.12265 44.16122 31214 ft 478 kts 126°
2026-05-06 05:10 26.10750 44.19403 30754 ft 475 kts 125°
2026-05-06 05:10 26.09248 44.22649 30295 ft 472 kts 125°
2026-05-06 05:10 26.07748 44.25890 29787 ft 469 kts 125°
2026-05-06 05:11 26.06256 44.29111 29276 ft 465 kts 125°
2026-05-06 05:11 26.04781 44.32295 28788 ft 461 kts 125°
2026-05-06 05:11 26.03320 44.35444 28315 ft 457 kts 124°
2026-05-06 05:11 26.01871 44.38567 27848 ft 452 kts 124°
2026-05-06 05:12 26.00435 44.41660 27395 ft 448 kts 124°
2026-05-06 05:12 25.99030 44.44682 26948 ft 444 kts 124°
2026-05-06 05:12 25.97598 44.47760 26481 ft 441 kts 124°
2026-05-06 05:12 25.96195 44.50773 26036 ft 437 kts 124°
2026-05-06 05:13 25.94803 44.53759 25583 ft 434 kts 124°
2026-05-06 05:13 25.93436 44.56692 25124 ft 431 kts 123°
2026-05-06 05:13 25.92043 44.59678 24662 ft 429 kts 123°
2026-05-06 05:13 25.90673 44.62612 24201 ft 426 kts 123°
2026-05-06 05:14 25.89312 44.65526 23756 ft 424 kts 123°
2026-05-06 05:14 25.87955 44.68432 23238 ft 420 kts 123°
2026-05-06 05:14 25.86648 44.71233 22748 ft 408 kts 123°
2026-05-06 05:14 25.85361 44.73991 22310 ft 399 kts 123°
2026-05-06 05:15 25.84083 44.76714 21872 ft 396 kts 123°
2026-05-06 05:15 25.82814 44.79415 21449 ft 393 kts 123°
2026-05-06 05:15 25.81554 44.82094 21033 ft 391 kts 123°
2026-05-06 05:15 25.80300 44.84761 20618 ft 388 kts 123°
2026-05-06 05:16 25.79056 44.87406 20207 ft 386 kts 123°
2026-05-06 05:16 25.77816 44.90040 19795 ft 384 kts 122°
2026-05-06 05:16 25.76585 44.92657 19381 ft 382 kts 122°
2026-05-06 05:16 25.75358 44.95263 18965 ft 380 kts 122°
2026-05-06 05:17 25.74137 44.97854 18547 ft 378 kts 122°
2026-05-06 05:17 25.72923 45.00429 18098 ft 377 kts 122°
2026-05-06 05:17 25.71711 45.02999 17656 ft 374 kts 122°
2026-05-06 05:17 25.70510 45.05545 17242 ft 370 kts 122°
2026-05-06 05:18 25.69322 45.08063 16831 ft 367 kts 122°
2026-05-06 05:18 25.68145 45.10556 16432 ft 363 kts 122°
2026-05-06 05:18 25.66978 45.13025 16069 ft 359 kts 122°
2026-05-06 05:18 25.65839 45.15436 16009 ft 347 kts 122°
2026-05-06 05:19 25.64725 45.17793 16008 ft 344 kts 122°
2026-05-06 05:19 25.63612 45.20139 16012 ft 346 kts 122°
2026-05-06 05:19 25.62482 45.22519 16018 ft 349 kts 122°
2026-05-06 05:19 25.61354 45.24898 16006 ft 348 kts 122°
2026-05-06 05:20 25.60228 45.27270 16001 ft 347 kts 122°
2026-05-06 05:20 25.59110 45.29628 16007 ft 346 kts 122°
2026-05-06 05:20 25.57988 45.31993 16006 ft 346 kts 122°
2026-05-06 05:20 25.56867 45.34353 16009 ft 346 kts 122°
2026-05-06 05:21 25.55749 45.36707 16007 ft 345 kts 122°
2026-05-06 05:21 25.54648 45.39023 16007 ft 345 kts 122°
2026-05-06 05:21 25.53530 45.41373 16011 ft 345 kts 122°
2026-05-06 05:21 25.52409 45.43729 16010 ft 346 kts 122°
2026-05-06 05:22 25.51287 45.46086 16011 ft 346 kts 122°
2026-05-06 05:22 25.50163 45.48445 16013 ft 347 kts 122°
2026-05-06 05:22 25.49035 45.50813 16009 ft 348 kts 122°
2026-05-06 05:22 25.47906 45.53181 16011 ft 348 kts 122°
2026-05-06 05:23 25.46777 45.55548 16013 ft 349 kts 122°
2026-05-06 05:23 25.45643 45.57925 16009 ft 349 kts 122°
2026-05-06 05:23 25.43376 45.62672 16009 ft 349 kts 122°
2026-05-06 05:24 25.42241 45.65045 16010 ft 349 kts 122°
2026-05-06 05:24 25.41107 45.67418 16014 ft 349 kts 122°
2026-05-06 05:24 25.39971 45.69793 16008 ft 349 kts 122°
2026-05-06 05:24 25.38837 45.72163 16006 ft 349 kts 122°
2026-05-06 05:25 25.37701 45.74536 16007 ft 349 kts 122°
2026-05-06 05:25 25.36577 45.76883 15992 ft 339 kts 122°
2026-05-06 05:25 25.35515 45.79161 15966 ft 331 kts 118°
2026-05-06 05:25 25.34664 45.81531 15875 ft 333 kts 113°
2026-05-06 05:26 25.33922 45.83961 15779 ft 334 kts 112°
2026-05-06 05:26 25.33208 45.86402 15670 ft 333 kts 112°
2026-05-06 05:26 25.32491 45.88837 15559 ft 332 kts 112°
2026-05-06 05:26 25.31764 45.91267 15484 ft 336 kts 112°
2026-05-06 05:27 25.31017 45.93728 15365 ft 336 kts 112°
2026-05-06 05:27 25.30275 45.96153 15252 ft 331 kts 112°
2026-05-06 05:27 25.29539 45.98541 15147 ft 327 kts 112°
2026-05-06 05:27 25.28803 46.00915 15048 ft 327 kts 112°
2026-05-06 05:28 25.28064 46.03289 14944 ft 327 kts 112°
2026-05-06 05:28 25.27323 46.05665 14843 ft 327 kts 112°
2026-05-06 05:28 25.26583 46.08035 14737 ft 326 kts 112°
2026-05-06 05:28 25.25843 46.10405 14633 ft 326 kts 112°
2026-05-06 05:29 25.25104 46.12771 14535 ft 325 kts 112°
2026-05-06 05:29 25.24368 46.15126 14431 ft 325 kts 112°
2026-05-06 05:29 25.23637 46.17459 14317 ft 325 kts 112°
2026-05-06 05:29 25.22892 46.19838 14214 ft 324 kts 112°
2026-05-06 05:30 25.22164 46.22160 14122 ft 323 kts 112°
2026-05-06 05:30 25.21430 46.24505 14019 ft 322 kts 112°
2026-05-06 05:30 25.20697 46.26841 13913 ft 321 kts 112°
2026-05-06 05:30 25.19968 46.29165 13809 ft 320 kts 112°
2026-05-06 05:31 25.19238 46.31489 13699 ft 319 kts 112°
2026-05-06 05:31 25.18512 46.33798 13592 ft 318 kts 112°
2026-05-06 05:31 25.17788 46.36100 13494 ft 317 kts 112°
2026-05-06 05:31 25.17066 46.38393 13388 ft 316 kts 112°
2026-05-06 05:32 25.16344 46.40685 13284 ft 315 kts 112°
2026-05-06 05:32 25.15341 46.42799 13171 ft 309 kts 133°
2026-05-06 05:32 25.13739 46.44318 13097 ft 302 kts 151°
2026-05-06 05:32 25.11924 46.45470 13012 ft 301 kts 153°
2026-05-06 05:33 25.10096 46.46596 12916 ft 302 kts 153°
2026-05-06 05:33 25.08265 46.47737 12817 ft 302 kts 153°
2026-05-06 05:33 25.06442 46.48885 12721 ft 302 kts 153°
2026-05-06 05:33 25.04613 46.50044 12627 ft 303 kts 153°
2026-05-06 05:34 25.03406 46.50811 12565 ft 303 kts 152°
2026-05-06 05:34 25.01579 46.51973 12472 ft 303 kts 153°
2026-05-06 05:34 24.99750 46.53136 12229 ft 305 kts 153°
2026-05-06 05:34 24.97904 46.54309 11897 ft 308 kts 152°
2026-05-06 05:35 24.96038 46.55494 11555 ft 306 kts 152°
2026-05-06 05:35 24.94235 46.56640 11302 ft 294 kts 153°
2026-05-06 05:35 24.92476 46.57755 11072 ft 291 kts 153°
2026-05-06 05:35 24.90714 46.58868 10840 ft 292 kts 153°
2026-05-06 05:36 24.88951 46.59983 10611 ft 293 kts 153°
2026-05-06 05:36 24.87198 46.61091 10374 ft 287 kts 153°
2026-05-06 05:36 24.85502 46.62165 10131 ft 276 kts 153°
2026-05-06 05:36 24.83867 46.63199 9888 ft 266 kts 153°
2026-05-06 05:37 24.82285 46.64197 9627 ft 258 kts 153°
2026-05-06 05:37 24.80741 46.65169 9372 ft 255 kts 153°
2026-05-06 05:37 24.79204 46.66137 9128 ft 254 kts 153°
2026-05-06 05:37 24.77671 46.67102 8885 ft 254 kts 152°
2026-05-06 05:38 24.76136 46.68067 8642 ft 254 kts 152°
2026-05-06 05:38 24.74604 46.69032 8400 ft 253 kts 152°
2026-05-06 05:38 24.73074 46.69996 8086 ft 256 kts 152°
2026-05-06 05:38 24.71513 46.70980 7715 ft 261 kts 151°
2026-05-06 05:39 24.69944 46.71969 7348 ft 264 kts 150°
2026-05-06 05:39 24.68360 46.72968 7038 ft 259 kts 150°
2026-05-06 05:39 24.66823 46.73936 6996 ft 252 kts 150°
2026-05-06 05:39 24.65321 46.74882 6969 ft 245 kts 150°
2026-05-06 05:40 24.63838 46.75812 6970 ft 247 kts 150°
2026-05-06 05:40 24.62329 46.76756 6975 ft 253 kts 150°
2026-05-06 05:40 24.60787 46.77721 6971 ft 257 kts 151°
2026-05-06 05:40 24.59230 46.78695 6968 ft 258 kts 151°
2026-05-06 05:41 24.57691 46.79715 6950 ft 258 kts 141°
2026-05-06 05:41 24.56606 46.81260 6964 ft 258 kts 115°
2026-05-06 05:41 24.56253 46.83191 6957 ft 261 kts 91°
2026-05-06 05:41 24.56644 46.85145 6937 ft 266 kts 67°
2026-05-06 05:42 24.57527 46.86930 6958 ft 268 kts 62°
2026-05-06 05:42 24.58662 46.88559 6936 ft 274 kts 40°
2026-05-06 05:42 24.60371 46.89469 6955 ft 277 kts 11°
2026-05-06 05:42 24.62276 46.89367 6958 ft 278 kts 341°
2026-05-06 05:43 24.64016 46.88447 6963 ft 278 kts 329°
2026-05-06 05:43 24.65684 46.87363 6968 ft 278 kts 329°
2026-05-06 05:43 24.67338 46.86295 6958 ft 273 kts 329°
2026-05-06 05:43 24.68945 46.85269 6960 ft 261 kts 329°
2026-05-06 05:44 24.70560 46.84444 6686 ft 256 kts 346°
2026-05-06 05:44 24.72275 46.84084 6610 ft 243 kts 352°
2026-05-06 05:44 24.73872 46.83816 6489 ft 228 kts 352°
2026-05-06 05:44 24.75414 46.83548 6263 ft 218 kts 352°
2026-05-06 05:45 24.76882 46.83228 5824 ft 221 kts 342°
2026-05-06 05:45 24.78278 46.82532 5514 ft 218 kts 333°
2026-05-06 05:45 24.79589 46.81715 5227 ft 214 kts 332°
2026-05-06 05:45 24.80866 46.80895 4945 ft 211 kts 332°
2026-05-06 05:46 24.82122 46.80092 4699 ft 207 kts 333°
2026-05-06 05:46 24.83365 46.79299 4439 ft 205 kts 333°
2026-05-06 05:46 24.84581 46.78523 4200 ft 199 kts 334°
2026-05-06 05:46 24.85758 46.77776 3931 ft 190 kts 334°
2026-05-06 05:47 24.86849 46.77081 3717 ft 172 kts 333°
2026-05-06 05:47 24.87819 46.76464 3506 ft 154 kts 333°
2026-05-06 05:47 24.88693 46.75908 3314 ft 139 kts 335°
2026-05-06 05:47 24.89507 46.75392 3150 ft 133 kts 334°
2026-05-06 05:48 24.90317 46.74877 2989 ft 136 kts 334°
2026-05-06 05:48 24.91147 46.74349 2806 ft 140 kts 334°
2026-05-06 05:48 24.92005 46.73804 2623 ft 144 kts 334°
2026-05-06 05:48 24.92867 46.73255 2417 ft 140 kts 334°
2026-05-06 05:49 24.93680 46.72740 2205 ft 130 kts 333°
2026-05-06 05:49 24.94457 46.72247 2116 ft 132 kts 333°
2026-05-06 05:49 24.95261 46.71767 2077 ft 121 kts 335°
2026-05-06 05:49 24.95798 46.71411 2076 ft 47 kts 327°
2026-05-06 05:50 24.95950 46.71256 2076 ft 16 kts 303°